| time (UTC) | temp C | wind direction | speed KPH | gust KPH | rain 1hr cm | rain 24hr cm | rain mn cm | humidity % | barometer mb |
| 20260831131505 | 25 | 217 | 0.0 | 0.0 | 0.00 | 0.00 | 0.00 | 29 | 991.2 |
| 20260831130106 | 24 | 217 | 0.0 | 0.0 | 0.00 | 0.00 | 0.00 | 27 | 991.0 |
| 20260831124608 | 24 | 217 | 0.0 | 0.0 | 0.00 | 0.00 | 0.00 | 28 | 990.8 |
| 20260831123058 | 24 | 217 | 0.0 | 0.0 | 0.00 | 0.00 | 0.00 | 28 | 990.8 |
| 20260831121555 | 24 | 217 | 1.6 | 4.8 | 0.00 | 0.00 | 0.00 | 31 | 990.7 |
| 20260831120054 | 24 | 217 | 3.2 | 6.4 | 0.00 | 0.00 | 0.00 | 31 | 990.7 |
| 20260831114549 | 24 | 217 | 6.4 | 9.7 | 0.00 | 0.00 | 0.00 | 31 | 990.6 |
| 20260831113038 | 24 | 207 | 4.8 | 8.0 | 0.00 | 0.00 | 0.00 | 34 | 990.5 |
| 20260831111516 | 24 | 207 | 4.8 | 8.0 | 0.00 | 0.00 | 0.00 | 35 | 990.4 |
| 20260831110019 | 24 | 207 | 4.8 | 8.0 | 0.00 | 0.00 | 0.00 | 38 | 990.2 |
| 20260831104503 | 25 | 221 | 4.8 | 8.0 | 0.00 | 0.00 | 0.00 | 38 | 990.3 |
| 20260831103101 | 25 | 223 | 4.8 | 11.3 | 0.00 | 0.00 | 0.00 | 40 | 990.2 |
| 20260831101600 | 25 | 226 | 9.7 | 16.1 | 0.00 | 0.00 | 0.00 | 40 | 990.4 |
| 20260831100118 | 25 | 215 | 6.4 | 12.9 | 0.00 | 0.00 | 0.00 | 44 | 990.5 |
| 20260831094554 | 24 | 220 | 6.4 | 9.7 | 0.00 | 0.00 | 0.00 | 47 | 990.3 |
| 20260831093051 | 25 | 221 | 8.0 | 11.3 | 0.00 | 0.00 | 0.00 | 50 | 990.2 |
| 20260831091553 | 25 | 211 | 8.0 | 12.9 | 0.00 | 0.00 | 0.00 | 53 | 990.1 |
| 20260831090048 | 25 | 207 | 6.4 | 12.9 | 0.00 | 0.00 | 0.00 | 56 | 990.2 |
| 20260831084527 | 25 | 219 | 6.4 | 11.3 | 0.00 | 0.00 | 0.00 | 59 | 990.2 |
| 20260831083027 | 25 | 213 | 6.4 | 12.9 | 0.00 | 0.00 | 0.00 | 62 | 990.3 |
| 20260831081509 | 25 | 213 | 6.4 | 12.9 | 0.00 | 0.00 | 0.00 | 64 | 990.2 |
| 20260831080009 | 25 | 205 | 8.0 | 12.9 | 0.00 | 0.00 | 0.00 | 65 | 990.2 |
| 20260831074603 | 25 | 191 | 8.0 | 11.3 | 0.00 | 0.00 | 0.00 | 67 | 990.3 |
| 20260831073055 | 26 | 200 | 4.8 | 9.7 | 0.00 | 0.00 | 0.00 | 67 | 990.3 |
| 20260831071606 | 26 | 197 | 4.8 | 8.0 | 0.00 | 0.00 | 0.00 | 68 | 990.4 |
| 20260831070054 | 26 | 198 | 3.2 | 9.7 | 0.00 | 0.00 | 0.00 | 68 | 990.4 |
| 20260831064554 | 26 | 198 | 4.8 | 9.7 | 0.00 | 0.00 | 0.00 | 68 | 990.4 |
| 20260831063058 | 27 | 200 | 8.0 | 12.9 | 0.00 | 0.00 | 0.00 | 68 | 990.5 |
| 20260831061553 | 27 | 205 | 8.0 | 12.9 | 0.00 | 0.00 | 0.00 | 68 | 990.3 |
| 20260831060101 | 27 | 197 | 8.0 | 12.9 | 0.00 | 0.00 | 0.00 | 67 | 990.2 |
| 20260831054538 | 28 | 201 | 8.0 | 12.9 | 0.00 | 0.00 | 0.00 | 67 | 990.2 |
| 20260831053038 | 28 | 192 | 8.0 | 14.5 | 0.00 | 0.00 | 0.00 | 66 | 990.2 |
| 20260831051541 | 28 | 207 | 9.7 | 16.1 | 0.00 | 0.00 | 0.00 | 66 | 990.1 |
| 20260831050048 | 28 | 203 | 11.3 | 14.5 | 0.00 | 0.00 | 0.00 | 65 | 990.0 |
| 20260831044537 | 28 | 199 | 11.3 | 14.5 | 0.00 | 0.00 | 0.00 | 64 | 989.9 |
| 20260831043043 | 29 | 192 | 12.9 | 16.1 | 0.00 | 0.00 | 0.00 | 63 | 989.8 |
| 20260831041551 | 29 | 195 | 11.3 | 16.1 | 0.00 | 0.00 | 0.00 | 63 | 989.8 |
| 20260831040035 | 30 | 192 | 12.9 | 19.3 | 0.00 | 0.00 | 0.00 | 61 | 989.7 |
| 20260831034517 | 30 | 200 | 14.5 | 19.3 | 0.00 | 0.00 | 0.00 | 61 | 989.6 |
| 20260831033019 | 30 | 205 | 11.3 | 17.7 | 0.00 | 0.00 | 0.00 | 60 | 989.3 |
| 20260831031600 | 30 | 209 | 12.9 | 17.7 | 0.00 | 0.00 | 0.00 | 59 | 989.3 |
| 20260831030104 | 31 | 210 | 14.5 | 20.9 | 0.00 | 0.00 | 0.00 | 57 | 989.1 |
| 20260831024541 | 31 | 192 | 14.5 | 20.9 | 0.00 | 0.00 | 0.00 | 55 | 988.8 |
| 20260831023040 | 31 | 182 | 12.9 | 20.9 | 0.00 | 0.00 | 0.00 | 50 | 988.6 |
| 20260831021524 | 31 | 150 | 9.7 | 14.5 | 0.00 | 0.00 | 0.00 | 49 | 988.3 |
| 20260831020023 | 32 | 148 | 6.4 | 12.9 | 0.00 | 0.00 | 0.00 | 48 | 988.2 |
| 20260831014506 | 32 | 148 | 8.0 | 14.5 | 0.00 | 0.00 | 0.00 | 46 | 987.9 |
| 20260831013004 | 32 | 143 | 4.8 | 12.9 | 0.00 | 0.00 | 0.00 | 42 | 987.8 |
| 20260831011547 | 33 | 148 | 6.4 | 12.9 | 0.00 | 0.00 | 0.00 | 41 | 987.6 |
| 20260831010059 | 33 | 143 | 8.0 | 14.5 | 0.00 | 0.00 | 0.00 | 41 | 987.6 |
| 20260831004527 | 34 | 150 | 9.7 | 17.7 | 0.00 | 0.00 | 0.00 | 39 | 987.6 |
| 20260831003027 | 35 | 131 | 8.0 | 16.1 | 0.00 | 0.00 | 0.00 | 38 | 987.4 |
| 20260831001520 | 35 | 149 | 12.9 | 20.9 | 0.00 | 0.00 | 0.00 | 38 | 987.4 |
| 20260831000010 | 35 | 180 | 6.4 | 25.7 | 0.00 | 0.00 | 0.00 | 36 | 987.5 |
| 20260830234559 | 35 | 174 | 11.3 | 20.9 | 0.00 | 0.00 | 0.00 | 36 | 987.5 |
| 20260830233049 | 36 | 181 | 11.3 | 20.9 | 0.00 | 0.00 | 0.00 | 35 | 987.5 |
| 20260830231535 | 35 | 157 | 12.9 | 19.3 | 0.00 | 0.00 | 0.00 | 37 | 987.6 |
| 20260830230036 | 35 | 171 | 9.7 | 19.3 | 0.00 | 0.00 | 0.00 | 35 | 987.6 |
| 20260830224533 | 36 | 125 | 8.0 | 22.5 | 0.00 | 0.00 | 0.00 | 36 | 987.6 |
| 20260830223034 | 36 | 209 | 8.0 | 19.3 | 0.00 | 0.00 | 0.00 | 37 | 987.7 |
| 20260830221531 | 36 | 200 | 9.7 | 17.7 | 0.00 | 0.00 | 0.00 | 37 | 987.8 |
| 20260830220030 | 35 | 163 | 9.7 | 19.3 | 0.00 | 0.00 | 0.00 | 38 | 987.9 |
| 20260830214530 | 36 | 209 | 11.3 | 20.9 | 0.00 | 0.00 | 0.00 | 37 | 988.0 |
| 20260830213027 | 36 | 206 | 12.9 | 20.9 | 0.00 | 0.00 | 0.00 | 39 | 988.2 |
| 20260830211513 | 35 | 150 | 6.4 | 19.3 | 0.00 | 0.00 | 0.00 | 40 | 988.5 |
| 20260830210012 | 36 | 172 | 16.1 | 25.7 | 0.00 | 0.00 | 0.00 | 41 | 988.7 |
| 20260830204510 | 35 | 192 | 16.1 | 32.2 | 0.00 | 0.00 | 0.00 | 40 | 988.9 |
| 20260830203019 | 35 | 165 | 16.1 | 24.1 | 0.00 | 0.00 | 0.00 | 43 | 989.0 |
| 20260830201505 | 35 | 194 | 9.7 | 25.7 | 0.00 | 0.00 | 0.00 | 42 | 989.3 |
| 20260830200002 | 35 | 167 | 16.1 | 29.0 | 0.00 | 0.00 | 0.00 | 45 | 989.4 |
| 20260830194501 | 35 | 191 | 12.9 | 32.2 | 0.00 | 0.00 | 0.00 | 46 | 989.6 |
| 20260830193057 | 35 | 175 | 17.7 | 25.7 | 0.00 | 0.00 | 0.00 | 43 | 989.9 |
| 20260830191544 | 34 | 130 | 12.9 | 32.2 | 0.00 | 0.00 | 0.00 | 45 | 990.1 |
| 20260830190043 | 34 | 209 | 11.3 | 24.1 | 0.00 | 0.00 | 0.00 | 47 | 990.2 |
| 20260830184541 | 34 | 192 | 17.7 | 25.7 | 0.00 | 0.00 | 0.00 | 47 | 990.5 |
| 20260830183037 | 33 | 185 | 14.5 | 22.5 | 0.00 | 0.00 | 0.00 | 49 | 990.7 |
| 20260830181533 | 33 | 183 | 14.5 | 25.7 | 0.00 | 0.00 | 0.00 | 51 | 990.9 |
| 20260830180032 | 33 | 180 | 14.5 | 25.7 | 0.00 | 0.00 | 0.00 | 53 | 991.2 |
| 20260830174536 | 32 | 183 | 12.9 | 24.1 | 0.00 | 0.00 | 0.00 | 55 | 991.5 |
| 20260830173042 | 32 | 217 | 14.5 | 25.7 | 0.00 | 0.00 | 0.00 | 57 | 991.8 |
| 20260830171517 | 32 | 190 | 11.3 | 22.5 | 0.00 | 0.00 | 0.00 | 58 | 992.0 |
| 20260830170115 | 31 | 232 | 14.5 | 22.5 | 0.00 | 0.00 | 0.00 | 58 | 992.2 |
| 20260830164515 | 31 | 218 | 11.3 | 22.5 | 0.00 | 0.00 | 0.00 | 59 | 992.3 |
| 20260830163015 | 31 | 194 | 9.7 | 20.9 | 0.00 | 0.00 | 0.00 | 62 | 992.4 |
| 20260830161510 | 30 | 179 | 11.3 | 25.7 | 0.00 | 0.00 | 0.00 | 63 | 992.5 |
| 20260830160010 | 30 | 224 | 12.9 | 27.4 | 0.00 | 0.00 | 0.00 | 63 | 992.5 |
| 20260830154503 | 30 | 214 | 8.0 | 19.3 | 0.00 | 0.00 | 0.00 | 64 | 992.3 |
| 20260830153101 | 29 | 247 | 8.0 | 17.7 | 0.00 | 0.00 | 0.00 | 65 | 992.3 |
| 20260830151558 | 28 | 246 | 12.9 | 24.1 | 0.00 | 0.00 | 0.00 | 66 | 992.2 |
| 20260830150054 | 28 | 247 | 16.1 | 25.7 | 0.00 | 0.00 | 0.00 | 67 | 992.2 |
| 20260830144536 | 27 | 211 | 11.3 | 22.5 | 0.00 | 0.00 | 0.00 | 66 | 992.2 |
| 20260830143020 | 27 | 248 | 14.5 | 25.7 | 0.00 | 0.00 | 0.00 | 64 | 992.1 |
| 20260830141519 | 26 | 239 | 16.1 | 24.1 | 0.00 | 0.00 | 0.00 | 60 | 992.1 |
| 20260830140012 | 26 | 218 | 14.5 | 27.4 | 0.00 | 0.00 | 0.00 | 56 | 992.1 |
| 20260830134513 | 25 | 234 | 9.7 | 16.1 | 0.00 | 0.00 | 0.00 | 52 | 991.9 |
| 20260830133012 | 25 | 200 | 8.0 | 16.1 | 0.00 | 0.00 | 0.00 | 46 | 991.8 |